Weather History for Soldotna, AK

Change the Weather History Date:

Thursday, September 6, 2012

  Actual Average Record
Temperature  
Mean Temperature 50 °F -  
Max Temperature 53 °F 57 °F 70 °F (1963)
Min Temperature 44 °F 39 °F 25 °F (1976)
Degree Days  
Heating Degree Days 16    
Moisture  
Dew Point 36 °F    
Average Humidity 61    
Maximum Humidity 71    
Minimum Humidity 47    
Precipitation  
Precipitation 0.00 in - - ()
Sea Level Pressure  
Sea Level Pressure 30.04 in    
Wind  
Wind Speed 11 mph (SSW)    
Max Wind Speed 22 mph    
Max Gust Speed 31 mph    
Visibility 10 miles    
Events      
Averages and records for this station are not official NWS values.
T = Trace of Precipitation, MM = Missing Value Source: NWS Daily Summary

Daily Weather History Graph

Daily Weather History Graph

Search for Another Location

Airport:

Trip Planner

Search our weather history database for the weather conditions in past years. The results will help you decide how hot, cold, wet, or windy it might be!

Date:

Astronomy

Sep. 06, 2012 Rise Set
Actual Time 7:11 AM AKDT 8:51 PM AKDT
Civil Twilight 6:27 AM AKDT 9:35 PM AKDT
Nautical Twilight 5:30 AM AKDT 10:31 PM AKDT
Astronomical Twilight 4:21 AM AKDT 11:39 PM AKDT
Moon 10:13 PM AKDT (9/6) 3:14 PM AKDT (9/6)
Length of Visible Light 15h 08m
Length of Day
13h 39m
Waning Gibbous, 66% of the Moon is Illuminated
Sep 6
Waning Gibbous
Sep 8
Last Quarter
Sep 15
New
Sep 22
First Quarter
Sep 29
Full

Hourly Weather History & Observations

Time (AKDT) Temp. Windchill Dew Point Humidity Pressure Visibility Wind Dir Wind Speed Gust Speed Precip Events Conditions
12:16 AM 48.2 °F - 39.2 °F 71% 29.87 in 10.0 mi South 6.9 mph - N/A   Clear
12:36 AM 48.2 °F - 39.2 °F 71% 29.88 in 10.0 mi SSW 10.4 mph 17.3 mph N/A   Clear
12:56 AM 48.2 °F - 39.2 °F 71% 29.89 in 10.0 mi South 11.5 mph 18.4 mph N/A   Clear
1:16 AM 48.2 °F - 39.2 °F 71% 29.89 in 10.0 mi South 12.7 mph 21.9 mph N/A   Scattered Clouds
1:36 AM 48.2 °F - 37.4 °F 66% 29.90 in 10.0 mi South 10.4 mph 21.9 mph N/A   Mostly Cloudy
1:56 AM 48.2 °F - 37.4 °F 66% 29.91 in 10.0 mi SW 12.7 mph 19.6 mph N/A   Partly Cloudy
2:16 AM 48.2 °F - 37.4 °F 66% 29.92 in 10.0 mi SSW 11.5 mph 20.7 mph N/A   Clear
2:36 AM 48.2 °F - 37.4 °F 66% 29.93 in 10.0 mi SW 9.2 mph 20.7 mph N/A   Clear
2:56 AM 46.4 °F 41.9 °F 37.4 °F 71% 29.93 in 10.0 mi South 9.2 mph 16.1 mph N/A   Clear
3:16 AM 46.4 °F 41.5 °F 37.4 °F 71% 29.93 in 10.0 mi South 10.4 mph 17.3 mph N/A   Clear
3:36 AM 46.4 °F 41.1 °F 37.4 °F 71% 29.94 in 10.0 mi South 11.5 mph 19.6 mph N/A   Clear
3:56 AM 46.4 °F 40.7 °F 37.4 °F 71% 29.94 in 10.0 mi SSW 12.7 mph 16.1 mph N/A   Clear
4:16 AM 46.4 °F 41.5 °F 37.4 °F 71% 29.95 in 10.0 mi SSW 10.4 mph 19.6 mph N/A   Clear
4:36 AM 46.4 °F 40.7 °F 37.4 °F 71% 29.96 in 10.0 mi SSW 12.7 mph 17.3 mph N/A   Clear
4:56 AM 46.4 °F 40.7 °F 37.4 °F 71% 29.96 in 10.0 mi SSW 12.7 mph 19.6 mph N/A   Clear
5:16 AM 46.4 °F 41.1 °F 37.4 °F 71% 29.96 in 10.0 mi SSW 11.5 mph 17.3 mph N/A   Partly Cloudy
5:36 AM 46.4 °F 41.1 °F 37.4 °F 71% 29.96 in 10.0 mi SSW 11.5 mph 21.9 mph N/A   Mostly Cloudy
5:56 AM 46.4 °F 40.7 °F 37.4 °F 71% 29.97 in 10.0 mi South 12.7 mph 20.7 mph N/A   Mostly Cloudy
6:16 AM 46.4 °F 41.1 °F 37.4 °F 71% 29.98 in 10.0 mi SSW 11.5 mph 20.7 mph N/A   Scattered Clouds
6:36 AM 46.4 °F 40.4 °F 37.4 °F 71% 29.98 in 10.0 mi South 13.8 mph 20.7 mph N/A   Partly Cloudy
6:56 AM 46.4 °F 40.4 °F 37.4 °F 71% 29.98 in 10.0 mi SSW 13.8 mph 23.0 mph N/A   Clear
7:16 AM 46.4 °F 39.8 °F 37.4 °F 71% 29.98 in 10.0 mi South 16.1 mph 19.6 mph N/A   Clear
7:36 AM 46.4 °F 40.1 °F 37.4 °F 71% 29.99 in 10.0 mi SSW 15.0 mph 18.4 mph N/A   Clear
7:56 AM 46.4 °F 41.9 °F 37.4 °F 71% 29.99 in 10.0 mi SSW 9.2 mph 25.3 mph N/A   Clear
8:16 AM 46.4 °F 40.7 °F 37.4 °F 71% 30.00 in 10.0 mi South 12.7 mph 19.6 mph N/A   Clear
8:36 AM 46.4 °F 40.4 °F 37.4 °F 71% 30.00 in 10.0 mi SSW 13.8 mph 27.6 mph N/A   Clear
8:56 AM 46.4 °F 41.9 °F 37.4 °F 71% 30.01 in 10.0 mi SSW 9.2 mph 21.9 mph N/A   Clear
9:16 AM 46.4 °F 41.5 °F 37.4 °F 71% 30.02 in 10.0 mi SSW 10.4 mph 19.6 mph N/A   Clear
9:36 AM 46.4 °F 41.1 °F 37.4 °F 71% 30.03 in 10.0 mi SSW 11.5 mph 23.0 mph N/A   Clear
9:56 AM 48.2 °F - 39.2 °F 71% 30.03 in 10.0 mi SSW 15.0 mph 25.3 mph N/A   Clear
10:16 AM 48.2 °F - 37.4 °F 66% 30.04 in 10.0 mi SW 12.7 mph 23.0 mph N/A   Clear
10:36 AM 50.0 °F - 37.4 °F 62% 30.04 in 10.0 mi SW 13.8 mph 21.9 mph N/A   Partly Cloudy
10:56 AM 51.8 °F - 37.4 °F 58% 30.05 in 10.0 mi SW 17.3 mph 25.3 mph N/A   Clear
11:16 AM 51.8 °F - 37.4 °F 58% 30.06 in 10.0 mi SW 16.1 mph 25.3 mph N/A   Clear
11:36 AM 51.8 °F - 35.6 °F 54% 30.07 in 10.0 mi SW 13.8 mph 25.3 mph N/A   Clear
11:56 AM 51.8 °F - 35.6 °F 54% 30.07 in 10.0 mi South 13.8 mph 28.8 mph N/A   Clear
12:16 PM 51.8 °F - 35.6 °F 54% 30.08 in 10.0 mi SW 13.8 mph 27.6 mph N/A   Clear
12:36 PM 53.6 °F - 35.6 °F 51% 30.08 in 10.0 mi SSW 15.0 mph 25.3 mph N/A   Clear
12:56 PM 53.6 °F - 37.4 °F 54% 30.08 in 10.0 mi SSW 20.7 mph 25.3 mph N/A   Clear
1:16 PM 53.6 °F - 35.6 °F 51% 30.09 in 10.0 mi SW 15.0 mph 25.3 mph N/A   Clear
1:36 PM 53.6 °F - 35.6 °F 51% 30.09 in 10.0 mi South 16.1 mph 21.9 mph N/A   Partly Cloudy
1:56 PM 53.6 °F - 33.8 °F 47% 30.10 in 10.0 mi SSW 10.4 mph 25.3 mph N/A   Partly Cloudy
2:16 PM 51.8 °F - 35.6 °F 54% 30.10 in 10.0 mi SW 13.8 mph 21.9 mph N/A   Clear
2:36 PM 53.6 °F - 35.6 °F 51% 30.10 in 10.0 mi SSW 13.8 mph 19.6 mph N/A   Clear
2:56 PM 53.6 °F - 33.8 °F 47% 30.10 in 10.0 mi SSW 10.4 mph 23.0 mph N/A   Clear
3:16 PM 51.8 °F - 32.0 °F 47% 30.10 in 10.0 mi SW 17.3 mph 26.5 mph N/A   Clear
3:36 PM 53.6 °F - 35.6 °F 51% 30.09 in 10.0 mi WSW 11.5 mph 16.1 mph N/A   Clear
3:56 PM 53.6 °F - 33.8 °F 47% 30.10 in 10.0 mi SW 12.7 mph 21.9 mph N/A   Clear
4:16 PM 53.6 °F - 35.6 °F 51% 30.10 in 10.0 mi SW 11.5 mph 20.7 mph N/A   Clear
4:36 PM 53.6 °F - 35.6 °F 51% 30.10 in 10.0 mi SW 13.8 mph 23.0 mph N/A   Partly Cloudy
4:56 PM 53.6 °F - 35.6 °F 51% 30.10 in 10.0 mi SW 17.3 mph 20.7 mph N/A   Partly Cloudy
5:16 PM 53.6 °F - 33.8 °F 47% 30.10 in 10.0 mi SW 17.3 mph 27.6 mph N/A   Partly Cloudy
5:36 PM 53.6 °F - 35.6 °F 51% 30.10 in 10.0 mi SW 21.9 mph 31.1 mph N/A   Partly Cloudy
5:56 PM 51.8 °F - 35.6 °F 54% 30.10 in 10.0 mi WSW 17.3 mph 28.8 mph N/A   Clear
6:16 PM 53.6 °F - 35.6 °F 51% 30.10 in 10.0 mi WSW 15.0 mph 23.0 mph N/A   Partly Cloudy
6:36 PM 51.8 °F - 35.6 °F 54% 30.10 in 10.0 mi SW 8.1 mph 18.4 mph N/A   Scattered Clouds
6:56 PM 51.8 °F - 35.6 °F 54% 30.11 in 10.0 mi SW 12.7 mph 17.3 mph N/A   Partly Cloudy
7:16 PM 51.8 °F - 33.8 °F 50% 30.10 in 10.0 mi SW 12.7 mph 19.6 mph N/A   Clear
7:36 PM 51.8 °F - 35.6 °F 54% 30.10 in 10.0 mi SSW 9.2 mph 17.3 mph N/A   Clear
7:56 PM 51.8 °F - 35.6 °F 54% 30.10 in 10.0 mi SW 11.5 mph 18.4 mph N/A   Clear
8:16 PM 51.8 °F - 33.8 °F 50% 30.10 in 10.0 mi SW 9.2 mph 18.4 mph N/A   Clear
8:36 PM 50.0 °F - 33.8 °F 54% 30.10 in 10.0 mi SSW 8.1 mph - N/A   Clear
8:56 PM 48.2 °F - 33.8 °F 58% 30.11 in 10.0 mi South 4.6 mph - N/A   Clear
9:16 PM 48.2 °F - 33.8 °F 58% 30.11 in 10.0 mi South 5.8 mph - N/A   Clear
9:36 PM 48.2 °F - 33.8 °F 58% 30.11 in 10.0 mi South 8.1 mph - N/A   Clear
9:56 PM 48.2 °F - 33.8 °F 58% 30.11 in 10.0 mi SW 4.6 mph - N/A   Clear
10:16 PM 46.4 °F 44.3 °F 35.6 °F 66% 30.11 in 10.0 mi SE 4.6 mph - N/A   Clear
10:36 PM 46.4 °F 42.9 °F 35.6 °F 66% 30.12 in 10.0 mi SE 6.9 mph - N/A   Clear
10:56 PM 46.4 °F 44.3 °F 35.6 °F 66% 30.12 in 10.0 mi SSE 4.6 mph - N/A   Clear
11:16 PM 46.4 °F 45.2 °F 35.6 °F 66% 30.12 in 10.0 mi SE 3.5 mph - N/A   Clear
11:36 PM 46.4 °F 45.2 °F 35.6 °F 66% 30.12 in 10.0 mi SSE 3.5 mph - N/A   Clear
11:56 PM 44.6 °F 43.1 °F 35.6 °F 71% 30.12 in 10.0 mi ESE 3.5 mph - N/A   Clear